Location: Agadir Mansour Mhndou
(31.2424°N, 8.7730°W)
Time: 06:19:23
(UTC+00:00)

CZ-2C R/B - Pass Details

Date: 16 October 2021
Orbit: 388 x 573 km, 35.0° (Epoch: 28 November)

Event Time Altitude Azimuth Distance (km) Brightness Sun altitude
Rises 19:08:44 0° 257° (WSW) 2,398 6.3 -15.0°
Reaches altitude 10° 19:10:55 10° 259° (W) 1,501 4.9 -15.5°
Maximum altitude 19:14:18 72° 344° (NNW) 429 0.7 -16.2°
Enters shadow 19:15:20 40° 58° (ENE) 605 1.1 -16.4°
